Location: Banff
(51.1667°N, 115.5667°W)
Time: 12:42:06
(UTC+00:00)

Vanguard 1 Rocket - Pass Details

Date: 29 November 2020
Orbit: 655 x 4222 km, 34.3° (Epoch: 23 January)

Event Time Altitude Azimuth Distance (km) Brightness Sun altitude
Rises 07:11:02 0° 205° (SSW) 8,043 - -60.2°
Reaches altitude 10° 07:17:36 10° 195° (SSW) 7,276 - -60.3°
Maximum altitude 07:37:24 30° 146° (SE) 5,700 - -60.4°
Exits shadow 07:49:05 19° 108° (ESE) 5,850 11.3 -60.2°
Drops below altitude 10° 07:54:12 10° 96° (E) 6,256 11.6 -60.1°
Sets 07:59:08 0° 86° (E) 6,824 12.0 -59.9°
